Stations météo

Publicité
Amberieu, France (7482): Température de l'air & dewpoint: 19.06.2018 21:00:00 - 25.06.2018 21:00:00 (CEST)Amberieu, France (7482): Température de l'air 5cm: 19.06.2018 21:00:00 - 25.06.2018 21:00:00 (CEST)Amberieu, France (7482): Température de l'air -20cm & Température de l'air -100cm: 19.06.2018 21:00:00 - 25.06.2018 21:00:00 (CEST)Amberieu, France (7482): Vitesse du vent & gusts: 19.06.2018 21:00:00 - 25.06.2018 21:00:00 (CEST)Amberieu, France (7482): Direction du vent: 19.06.2018 21:00:00 - 25.06.2018 21:00:00 (CEST)Amberieu, France (7482): reduced air pressure: 19.06.2018 21:00:00 - 25.06.2018 21:00:00 (CEST)Amberieu, France (7482): visibility: 19.06.2018 21:00:00 - 25.06.2018 21:00:00 (CEST)Amberieu, France (7482): Ensoleillement: 19.06.2018 21:00:00 - 25.06.2018 21:00:00 (CEST)Amberieu, France (7482): Quantités de précipitations: 19.06.2018 21:00:00 - 25.06.2018 21:00:00 (CEST)
Date & Time tt [°C] td [°C] tt 5cm [°C] tt -20cm [°C] tt -100cm [°C] ff [km/h] ff [knt] fx [km/h] fx [knt] dd ppp [hPa] vv [km] sd [min] rr [mm]
25.06.2018 21:00:00 22,3 10,8 22,0 20,6 19,0 22 12 43 23 N 1018,2 20 60 0,0
25.06.2018 20:00:00 24,0 11,7 26,2 20,6 19,0 26 14 43 23 N 1017,7 20 60 0,0
25.06.2018 19:00:00 24,8 12,1 28,4 20,6 19,0 29 15 47 26 NNW 1017,2 20 60 0,0
25.06.2018 18:00:00 25,6 12,8 31,2 20,5 19,0 29 16 51 28 NNW 1017,1 20 60 0,0
25.06.2018 17:00:00 25,8 12,6 30,1 20,5 19,0 29 16 48 26 NNW 1017,2 20 60 0,0
25.06.2018 16:00:00 25,9 13,1 33,1 20,5 19,0 30 16 47 26 NNW 1017,2 20 60 0,0
25.06.2018 15:00:00 25,9 13,1 33,2 20,5 19,0 28 15 48 26 NNW 1017,4 20 60 0,0
25.06.2018 14:00:00 25,0 12,6 32,1 20,5 19,0 27 15 44 24 NNW 1017,8 20 60 0,0
25.06.2018 13:00:00 24,4 13,0 31,5 20,6 19,0 27 14 45 25 NNW 1018,1 20 60 0,0
25.06.2018 12:00:00 23,1 12,7 30,0 20,6 19,0 23 12 34 18 NNW 1018,6 20 60 0,0
25.06.2018 11:00:00 20,9 12,6 28,5 20,7 19,0 15 8 27 14 NNW 1018,9 20 60 0,0
25.06.2018 10:00:00 18,3 11,8 25,5 20,7 19,0 9 5 17 9 N 1019,1 20 60 0,0
25.06.2018 09:00:00 16,3 11,2 20,8 20,7 19,0 6 3 14 7 N 1019,5 20 60 0,0
25.06.2018 08:00:00 14,5 10,7 15,1 20,8 19,0 7 4 14 8 N 1019,6 20 60 0,0
25.06.2018 07:00:00 12,1 10,3 6,7 20,8 19,0 5 3 8 4 NNE 1019,8 20 9 0,0
25.06.2018 06:00:00 10,4 9,5 4,9 20,8 19,0 3 2 6 4 ENE 1019,8 20 0 0,0
25.06.2018 05:00:00 11,1 9,7 6,8 20,8 19,0 6 3 9 5 NNE 1019,4 20 0 0,0
25.06.2018 04:00:00 12,1 9,7 8,7 20,8 19,0 5 3 15 8 N 1019,4 20 0 0,0
25.06.2018 03:00:00 13,2 10,0 9,9 20,8 19,0 8 4 14 7 NNE 1019,8 20 0 0,0
25.06.2018 02:00:00 13,5 9,9 10,6 20,9 19,0 7 4 18 10 N 1019,7 20 0 0,0
25.06.2018 01:00:00 14,9 9,9 13,5 20,8 19,0 10 5 19 11 NNE 1019,5 20 0 0,0
25.06.2018 00:00:00 15,8 9,9 12,4 20,8 19,0 12 7 16 9 NNE 1019,2 20 0 0,0
24.06.2018 23:00:00 16,1 9,5 13,8 20,8 19,0 9 5 16 9 NNE 1019,0 20 0 0,0
24.06.2018 22:00:00 17,9 8,7 16,1 20,7 19,0 11 6 24 13 NNE 1018,7 20 0 0,0
24.06.2018 21:00:00 20,2 7,2 19,2 20,7 19,0 18 10 34 19 N 1018,1 20 25 0,0
24.06.2018 20:00:00 22,2 8,3 24,1 20,6 19,0 25 14 39 21 N 1017,6 20 57 0,0
24.06.2018 19:00:00 23,2 10,3 26,9 20,6 19,0 25 14 40 22 NNW 1017,3 20 60 0,0
24.06.2018 18:00:00 24,2 11,5 30,2 20,6 19,0 27 14 42 23 NNW 1017,5 20 60 0,0
24.06.2018 17:00:00 24,4 12,0 28,8 20,5 19,0 22 12 37 20 N 1017,8 20 60 0,0
24.06.2018 16:00:00 24,8 11,4 32,5 20,5 19,0 23 12 37 20 NNW 1017,8 19 60 0,0
24.06.2018 15:00:00 24,0 12,3 32,8 20,5 19,0 19 11 32 17 NNW 1018,3 20 60 0,0
24.06.2018 14:00:00 23,3 12,6 33,4 20,5 19,0 11 6 27 14 N 1018,9 20 60 0,0
24.06.2018 13:00:00 22,2 11,9 33,2 20,6 19,0 11 6 23 13 NNW 1019,5 20 60 0,0
24.06.2018 12:00:00 20,7 11,9 29,1 20,6 19,0 5 3 15 8 N 1020,1 20 60 0,0
24.06.2018 11:00:00 18,5 11,1 23,1 20,7 19,0 4 2 11 6 NE 1020,5 20 46 0,0
24.06.2018 10:00:00 17,0 10,8 18,7 20,7 19,0 4 2 10 5 WNW 1020,9 20 42 0,0
24.06.2018 09:00:00 14,4 10,0 16,0 20,7 19,0 4 2 13 7 NW 1021,0 20 9 0,0
24.06.2018 08:00:00 13,5 10,1 13,1 20,8 19,0 7 4 12 7 N 1020,8 20 15 0,0
24.06.2018 07:00:00 12,2 10,4 10,3 20,8 19,0 6 3 11 6 N 1020,8 20 0 0,0
24.06.2018 06:00:00 11,3 9,6 8,7 20,8 19,0 5 3 9 5 NNW 1020,4 20 0 0,0
24.06.2018 05:00:00 11,7 9,4 9,0 20,9 19,0 5 3 10 5 N 1020,3 20 0 0,0
24.06.2018 04:00:00 12,2 9,6 9,6 20,9 19,0 5 3 9 5 NNE 1020,6 20 0 0,0
24.06.2018 03:00:00 12,8 9,6 10,6 20,9 19,0 6 4 14 8 N 1020,7 20 0 0,0
24.06.2018 02:00:00 13,7 9,7 11,7 20,9 19,0 7 4 14 8 NNE 1021,2 20 0 0,0
24.06.2018 01:00:00 13,8 9,8 10,0 20,9 19,0 9 5 11 6 NNE 1021,3 20 0 0,0
24.06.2018 00:00:00 14,7 9,7 12,9 20,9 19,0 10 6 15 8 NNE 1021,5 20 0 0,0
23.06.2018 23:00:00 16,2 9,8 13,4 20,8 19,1 9 5 17 9 N 1021,3 20 0 0,0
23.06.2018 22:00:00 18,1 9,4 16,3 20,8 19,0 11 6 32 17 NNE 1021,1 20 6 0,0
23.06.2018 21:00:00 20,2 9,7 20,5 20,8 19,0 20 11 40 21 N 1020,7 20 55 0,0
23.06.2018 20:00:00 21,2 8,1 22,1 20,7 19,0 27 14 41 22 N 1020,4 20 53 0,0
23.06.2018 19:00:00 23,3 8,9 24,4 20,7 19,0 22 12 38 21 N 1020,2 20 50 0,0
23.06.2018 18:00:00 23,0 8,7 26,1 20,7 19,0 25 14 40 22 N 1020,5 20 56 0,0
23.06.2018 17:00:00 23,5 9,1 27,7 20,7 19,0 26 14 40 22 NNW 1020,7 20 60 0,0
23.06.2018 16:00:00 23,3 9,7 30,9 20,7 19,0 28 15 40 22 NNW 1021,2 19 60 0,0
23.06.2018 15:00:00 23,1 9,8 31,4 20,7 19,0 21 12 40 22 N 1021,7 19 60 0,0
23.06.2018 14:00:00 22,9 9,7 30,9 20,7 19,0 21 11 40 21 NNW 1022,3 20 60 0,0
23.06.2018 13:00:00 21,9 9,8 31,0 20,7 19,0 17 9 31 17 N 1022,7 20 60 0,0
23.06.2018 12:00:00 20,1 9,3 28,5 20,8 19,0 11 6 28 15 N 1023,3 20 60 0,0
23.06.2018 11:00:00 18,2 9,3 26,7 20,9 19,0 10 5 19 11 NW 1023,7 20 60 0,0
23.06.2018 10:00:00 16,2 8,9 24,2 20,9 19,0 8 4 16 9 NNW 1024,0 20 60 0,0
23.06.2018 09:00:00 14,0 8,2 19,3 21,0 19,0 8 4 13 7 N 1024,2 20 60 0,0
23.06.2018 08:00:00 12,2 8,1 14,5 21,0 19,0 6 3 12 6 N 1024,2 20 60 0,0
23.06.2018 07:00:00 10,2 8,0 4,2 21,1 19,0 3 2 7 4 NNE 1024,1 20 9 0,0
23.06.2018 06:00:00 8,2 6,7 5,6 21,2 19,0 4 2 15 8 NNE 1024,0 20 0 0,0
23.06.2018 05:00:00 8,5 6,8 3,4 21,2 19,0 5 3 13 7 ENE 1023,8 20 0 0,0
23.06.2018 04:00:00 8,8 6,8 3,8 21,2 19,0 5 3 12 7 NNE 1024,0 20 0 0,0
23.06.2018 03:00:00 9,8 6,7 6,7 21,2 19,0 6 4 14 7 N 1023,9 20 0 0,0
23.06.2018 02:00:00 11,6 7,1 7,4 21,3 19,0 6 3 15 8 N 1024,1 20 0 0,0
23.06.2018 01:00:00 12,7 6,9 10,0 21,3 19,0 8 5 21 12 N 1024,0 20 0 0,0
23.06.2018 00:00:00 14,3 6,9 12,3 21,2 19,0 13 7 31 17 N 1023,8 20 0 0,0
22.06.2018 23:00:00 15,4 7,2 13,7 21,3 19,0 19 11 37 20 N 1023,7 20 0 0,0
22.06.2018 22:00:00 16,6 7,2 15,3 21,3 19,0 24 13 40 21 N 1023,1 20 6 0,0
22.06.2018 21:00:00 18,5 7,3 18,2 21,3 19,0 27 15 49 26 N 1022,3 20 60 0,0
22.06.2018 20:00:00 20,5 7,1 22,7 21,2 19,0 31 17 50 27 N 1021,6 20 60 0,0
22.06.2018 19:00:00 21,3 7,1 25,2 21,2 18,9 34 18 55 30 N 1021,4 20 60 0,0
22.06.2018 18:00:00 21,8 6,8 26,6 21,2 18,9 36 20 59 32 N 1021,3 20 60 0,0
22.06.2018 17:00:00 22,8 8,9 25,0 21,2 18,9 32 17 58 32 NNW 1021,2 20 60 0,0
22.06.2018 16:00:00 22,3 8,0 29,2 21,2 18,9 36 20 55 30 N 1021,5 20 60 0,0
22.06.2018 15:00:00 22,2 7,2 28,9 21,3 18,9 34 18 52 28 NNW 1021,3 19 60 0,0
22.06.2018 14:00:00 21,7 7,5 27,3 21,3 18,9 31 17 52 28 NNW 1021,6 20 60 0,0
22.06.2018 13:00:00 20,4 8,1 25,8 21,3 18,9 31 17 49 27 N 1022,0 20 60 0,0
22.06.2018 12:00:00 19,0 9,2 23,4 21,4 18,9 32 18 49 26 N 1022,3 20 60 0,0
22.06.2018 11:00:00 17,2 8,6 20,9 21,4 18,9 29 16 43 23 NNW 1022,7 19 60 0,0
22.06.2018 10:00:00 15,2 7,5 20,2 21,5 18,9 29 15 41 22 N 1023,2 20 60 0,0
22.06.2018 09:00:00 13,9 7,0 17,1 21,5 18,9 24 13 38 21 NNW 1023,0 20 60 0,0
22.06.2018 08:00:00 12,6 6,6 14,0 21,6 18,9 22 12 37 20 N 1022,7 20 60 0,0
22.06.2018 07:00:00 11,6 6,5 10,5 21,6 18,9 25 13 37 20 N 1022,3 20 9 0,0
22.06.2018 06:00:00 11,6 7,1 10,3 21,6 18,9 21 11 34 19 N 1022,3 20 0 0,0
22.06.2018 05:00:00 12,6 8,3 11,4 21,6 18,9 20 11 32 18 N 1022,0 20 0 0,0
22.06.2018 04:00:00 13,6 9,2 12,5 21,6 18,9 22 12 42 23 N 1021,6 20 0 0,0
22.06.2018 03:00:00 15,1 9,9 14,3 21,6 18,9 24 13 39 21 N 1021,2 20 0 0,0
22.06.2018 02:00:00 16,1 10,6 15,0 21,6 18,8 22 12 37 20 N 1020,9 20 0 0,0
22.06.2018 01:00:00 17,5 12,4 16,4 21,6 18,9 19 10 34 19 N 1020,4 20 0 0,0
22.06.2018 00:00:00 19,1 14,4 18,1 21,5 18,8 21 11 30 16 N 1020,0 20 0 0,0
21.06.2018 23:00:00 20,4 15,0 19,1 21,5 18,9 18 10 41 22 N 1019,8 20 0 0,0
21.06.2018 22:00:00 21,2 15,7 20,2 21,4 18,8 26 14 49 27 N 1018,9 20 0 0,0
21.06.2018 21:00:00 23,5 16,5 23,0 21,3 18,8 33 18 49 27 N 1017,3 20 9 0,0
21.06.2018 20:00:00 26,5 15,5 26,9 21,3 18,8 12 6 29 16 N 1016,2 20 43 0,0
21.06.2018 19:00:00 28,3 15,6 32,1 21,2 18,8 15 8 29 16 N 1015,9 20 60 0,0
21.06.2018 18:00:00 29,5 14,5 32,9 21,1 18,8 16 9 29 16 NNW 1015,9 20 53 0,0
21.06.2018 17:00:00 29,7 13,5 33,6 21,1 18,8 14 8 32 17 N 1016,0 20 60 0,0
21.06.2018 16:00:00 30,2 16,2 33,6 21,0 18,8 16 8 29 15 NNW 1016,2 20 55 0,0
21.06.2018 15:00:00 30,1 16,9 35,1 21,0 18,8 13 7 25 14 NNW 1016,3 20 54 0,0
21.06.2018 14:00:00 28,7 17,9 33,2 21,0 18,8 13 7 26 14 N 1016,7 20 53 0,0
21.06.2018 13:00:00 28,8 18,3 38,2 21,0 18,8 8 5 18 10 NNW 1017,0 19 60 0,0
21.06.2018 12:00:00 28,1 18,8 35,6 21,1 18,8 5 3 16 9 NNW 1017,5 19 60 0,0
21.06.2018 11:00:00 27,0 17,8 35,3 21,1 18,8 6 3 13 7 SW 1017,6 20 58 0,0
21.06.2018 10:00:00 25,8 17,7 31,1 21,1 18,8 3 2 9 5 SW 1017,7 18 60 0,0
21.06.2018 09:00:00 22,8 17,0 25,7 21,2 18,7 4 2 9 5 NNE 1018,3 20 60 0,0
21.06.2018 08:00:00 19,8 16,4 20,2 21,2 18,8 2 1 9 5 N 1018,6 20 60 0,0
21.06.2018 07:00:00 16,5 15,2 14,2 21,2 18,8 7 4 11 6 NNE 1019,0 20 10 0,0
21.06.2018 06:00:00 15,7 14,4 14,1 21,2 18,8 5 3 12 7 NE 1018,6 20 0 0,0
21.06.2018 05:00:00 15,9 14,3 14,1 21,3 18,7 5 3 18 10 NE 1018,6 20 0 0,0
21.06.2018 04:00:00 15,8 14,7 13,0 21,2 18,7 5 3 8 4 NE 1018,6 20 0 0,0
21.06.2018 03:00:00 16,6 14,8 12,4 21,2 18,8 5 3 14 7 NE 1018,7 20 0 0,0
21.06.2018 02:00:00 17,3 14,9 12,0 21,2 18,7 0 0 10 5 N 1019,1 20 0 0,0
21.06.2018 01:00:00 17,3 14,9 13,8 21,1 18,7 4 2 8 4 NE 1019,1 20 0 0,0
21.06.2018 00:00:00 19,1 15,8 15,2 21,1 18,7 5 3 14 7 ENE 1019,0 20 0 0,0
20.06.2018 23:00:00 20,8 15,8 16,3 21,0 18,7 6 4 10 6 SE 1019,1 20 0 0,0
20.06.2018 22:00:00 23,1 16,6 17,7 20,9 18,7 6 3 9 5 ESE 1018,3 20 6 0,0
20.06.2018 21:00:00 26,4 15,7 24,6 20,9 18,7 6 3 9 5 NNW 1017,4 20 60 0,0
20.06.2018 20:00:00 29,4 14,8 33,0 20,8 18,7 7 4 13 7 NW 1017,1 20 60 0,0
20.06.2018 19:00:00 30,0 14,9 36,5 20,7 18,8 6 4 16 8 NNW 1017,1 20 60 0,0
20.06.2018 18:00:00 30,1 15,8 38,4 20,6 18,7 9 5 14 8 NNW 1017,2 20 60 0,0
20.06.2018 17:00:00 29,8 13,5 34,9 20,6 18,7 5 3 15 8 N 1017,9 20 60 0,0
20.06.2018 16:00:00 29,9 15,6 38,8 20,5 18,7 7 4 14 8 W 1018,1 14 60 0,0
20.06.2018 15:00:00 28,8 17,0 38,9 20,5 18,7 5 3 14 7 WNW 1018,6 20 60 0,0
20.06.2018 14:00:00 27,7 17,8 36,2 20,5 18,7 4 2 31 17 W 1019,4 19 60 0,0
20.06.2018 13:00:00 26,2 17,6 35,0 20,5 18,7 6 3 15 8 W 1020,1 20 60 0,0
20.06.2018 12:00:00 24,4 18,1 33,0 20,6 18,7 7 4 15 8 SW 1020,6 19 60 0,0
20.06.2018 11:00:00 22,4 17,3 24,8 20,6 18,7 5 3 13 7 SW 1020,9 20 60 0,0
20.06.2018 10:00:00 19,8 17,0 22,4 20,6 18,7 6 4 13 7 WSW 1021,5 17 22 0,0
20.06.2018 09:00:00 18,0 17,2 17,8 20,7 18,7 3 2 8 5 WNW 1021,5 10 10 0,0
20.06.2018 08:00:00 16,5 16,3 14,9 20,7 18,7 2 1 8 4 NE 1021,7 3,0 3 0,0
20.06.2018 07:00:00 14,6 14,3 9,4 20,7 18,7 0 0 5 3 N 1021,6 20 0 0,0
20.06.2018 06:00:00 14,0 13,7 9,1 20,7 18,7 3 1 4 2 SE 1021,6 20 0 0,0
20.06.2018 05:00:00 14,3 13,8 9,2 20,7 18,7 0 0 4 2 N 1021,4 20 0 0,0
20.06.2018 04:00:00 15,5 14,4 10,4 20,8 18,7 0 0 6 3 N 1021,0 20 0 0,0
20.06.2018 03:00:00 15,6 14,3 10,8 20,8 18,7 0 0 8 4 N 1020,9 20 0 0,0
20.06.2018 02:00:00 16,6 15,1 12,9 20,7 18,7 5 3 7 4 NNE 1021,0 20 0 0,0
20.06.2018 01:00:00 17,7 15,9 13,6 20,7 18,7 4 2 10 6 NE 1020,9 20 0 0,0
20.06.2018 00:00:00 19,8 16,2 14,8 20,7 18,7 4 2 8 5 NE 1020,8 20 0 0,0
19.06.2018 23:00:00 20,6 16,4 15,8 20,6 18,7 4 2 11 6 NNE 1020,8 20 0 0,0
19.06.2018 22:00:00 22,2 16,5 19,8 20,5 18,7 9 5 20 11 NNE 1020,3 20 6 0,0
19.06.2018 21:00:00 24,6 16,6 24,1 20,5 18,7 14 8 32 17 N 1020,1 20 60 0,0

tt = Température de l'air
td = dewpoint
tt 5cm = Température de l'air 5cm
tt -20cm = Température de l'air -20cm
tt -100cm = Température de l'air -100cm
ff = Vitesse du vent
fx = gusts
dd = Direction du vent
ppp = reduced air pressure
vv = visibility
sd = Ensoleillement
rr = Quantités de précipitations

stations d'obs. à proximité